www.pogodaiklimat.ru

Погода и климат >> Архив погоды >> Канада >> Нунавут >> Мыс Пил-Вест


ПОГОДА на Мысе Пил-Вест

  • Прогноз погоды на Мысе Пил-Вест
  • Монитор погоды на Мысе Пил-Вест

АРХИВ ПОГОДЫ на Мысе Пил-Вест

Время (UTC), дата Ветер
(напр.,м/с)
 
Видим.   Явления Облачность Т
(С)
Тd
(С)
f
(%)
Тe
(С)
Тes
(С)
Комфортность P
(гПа)
Po
(гПа)
Тmin
(С)
Tmax
(С)
R
(мм)
R24
(мм)
S
(см)
09 17.03 СВ 9 н/о ясно -29.8 -33.9 67 -46 -46 опасность
обморожения
1020.5 997.8
12 17.03 СВ 9 н/о 3/3 1500 м
[]
-29.6 -33.7 67 -46 -46 опасность
обморожения
1021.6 998.9
15 17.03 СВ 8 н/о ясно -29.5 -33.6 67 -45 -44 опасность
обморожения
1022.5 999.7
18 17.03 СВ 8 н/о ясно -27.4 -31.2 70 -42 -42 опасность
обморожения
1022.9 1000.1
21 17.03 СВ 7 н/о ясно -26.0 -29.7 71 -39 -38 опасность
обморожения
1024.0 1001.2
00 18.03 В 7 н/о ясно -27.2 -31.0 70 -41 -41 опасность
обморожения
1023.9 1001.0
03 18.03 В 7 н/о 10/0
[]
-29.0 -33.0 68 -43 -43 опасность
обморожения
1023.4 1000.5
06 18.03 В 5 н/о 10/0
[]
-28.4 -32.4 68 -41 -41 опасность
обморожения
1021.5 998.7 -30.0 -25.0
09 18.03 В 6 н/о 10/10 50 м
[]
-26.4 -30.1 71 -39 -39 опасность
обморожения
1018.2 995.6
12 18.03 ЮВ 7 н/о 10/10 100 м
[]
-23.9 -27.2 74 -36 -36 опасность
обморожения
1013.6 991.1
15 18.03 В 7 н/о 9/9 600 м
[]
-21.0 -23.9 77 -33 -33 опасность
обморожения
1009.5 987.2
18 18.03 В 7 н/о 10/10 200 м
[]
-21.3 -24.3 77 -34 -34 опасность
обморожения
1007.2 984.9
21 18.03 СВ 10 н/о 10/10 100 м
[]
-20.1 -22.9 78 -34 -34 опасность
обморожения
1006.0 983.8
00 19.03 СВ 12 н/о 10/10 100 м
[]
-20.0 -22.8 78 -35 -35 опасность
обморожения
1007.0 984.9
03 19.03 СВ 14 н/о 10/10 50 м
[]
-22.4 -25.5 76 -39 -39 опасность
обморожения
1009.4 987.3
06 19.03 СВ 11 н/о 10/10 50 м
[]
-25.8 -29.4 72 -42 -42 опасность
обморожения
1013.5 991.2 -28.4 -19.8
09 19.03 В 10 н/о 10/10 50 м
[]
-27.5 -31.3 70 -43 -43 опасность
обморожения
1016.4 994.0
12 19.03 В 9 н/о 10/10 50 м
[]
-28.7 -32.6 69 -45 -45 опасность
обморожения
1016.9 994.4
15 19.03 В 6 н/о 10/10 1500 м
[]
-27.0 -30.7 71 -39 -39 опасность
обморожения
1016.6 994.1
18 19.03 В 9 н/о 10/10 1000 м
[]
-23.6 -26.9 74 -38 -38 опасность
обморожения
1014.3 991.9
21 19.03 ЮВ 7 н/о 10/10 300 м
[]
-19.0 -21.6 80 -30 -30 1011.4 989.1
00 20.03 ЮВ 5 н/о 9/9 50 м
[]
-17.1 -19.5 82 -27 -27 1007.9 985.7
03 20.03 СВ 4 н/о 9/0
[]
-20.1 -22.9 78 -29 -29 1005.4 983.2
06 20.03 СЗ 2 н/о 10/10 300 м
[]
-18.8 -21.4 80 -23 -23 1003.6 981.6 -29.5 -17.1
09 20.03 С 6 н/о 10/10 100 м
[]
-16.0 -18.2 83 -26 -26 1002.7 980.9
12 20.03 С 5 н/о 10/10 50 м
[]
-16.9 -19.2 82 -26 -26 1002.7 980.9
15 20.03 СЗ 5 н/о 10/10 600 м
[]
-16.8 -19.2 82 -26 -26 1003.7 981.8
18 20.03 СЗ 10 н/о 5/5 50 м
[]
-16.2 -18.5 82 -28 -28 1005.4 983.6
21 20.03 СЗ 13 н/о 10/10 100 м
[]
-15.4 -17.6 83 -29 -29 1010.3 988.4
00 21.03 СЗ 12 н/о 9/9 600 м
[]
-13.2 -15.0 86 -25 -25 1013.7 991.8
03 21.03 СЗ 15 н/о 10/10 50 м
[]
-14.5 -16.4 85 -28 -28 1015.5 993.5
06 21.03 СЗ 16 н/о 10/10 50 м
[]
-18.7 -21.2 81 -35 -35 опасность
обморожения
1018.6 996.5 -18.8 -12.3
09 21.03 СЗ 14 н/о 10/10 50 м
[]
-21.3 -24.3 77 -37 -37 опасность
обморожения
1021.3 999.1
12 21.03 С 12 н/о ясно -23.4 -26.6 75 -39 -39 опасность
обморожения
1022.6 1000.3
15 21.03 С 5 н/о ясно -23.7 -27.0 74 -35 -34 опасность
обморожения
1023.2 1000.9
18 21.03 В 2 н/о ясно -20.9 -23.8 77 -27 -24 1021.7 999.4
21 21.03 ЮВ 5 н/о ясно -20.4 -23.2 78 -31 -29 опасность
обморожения
1018.9 996.6
00 22.03 В 9 н/о 5/5 600 м
[]
-20.1 -22.8 79 -33 -33 опасность
обморожения
1014.3 992.0
03 22.03 В 12 н/о 10/10 50 м
[]
-20.2 -23.0 78 -35 -35 опасность
обморожения
1009.2 987.0
06 22.03 В 11 н/о 10/10 50 м
[]
-20.1 -22.9 78 -34 -34 опасность
обморожения
1006.2 984.2 -24.0 -18.7
09 22.03 СВ 14 н/о 10/10 50 м
[]
-20.7 -23.6 77 -37 -37 опасность
обморожения
1005.7 983.7
12 22.03 СВ 12 н/о 10/10 50 м
[]
-20.9 -23.8 77 -36 -36 опасность
обморожения
1008.9 986.8
15 22.03 С 10 н/о 10/0 2000 м
[]
-20.8 -23.7 77 -35 -35 опасность
обморожения
1013.1 990.9
18 22.03 С 11 н/о ясно -24.2 -27.6 73 -40 -40 опасность
обморожения
1015.5 993.2
21 22.03 СЗ 9 н/о ясно -24.5 -27.9 73 -39 -38 опасность
обморожения
1018.7 996.3
00 23.03 СЗ 9 н/о 3/3 50 м
[]
-24.4 -27.8 73 -39 -39 опасность
обморожения
1019.9 997.5
03 23.03 С 8 н/о 10/10 50 м
[]
-27.5 -31.3 70 -42 -42 опасность
обморожения
1023.8 1001.2
06 23.03 СЗ 12 н/о ясно -29.5 -33.6 67 -47 -47 опасность
обморожения
1028.1 1005.2 -29.5 -19.9
09 23.03 СЗ 14 н/о ясно -30.8 -35.0 66 -50 -50 опасность
обморожения
1031.7 1008.7
12 23.03 С 16 н/о ясно -30.6 -34.8 67 -51 -51 опасность
обморожения
1033.1 1010.1
15 23.03 СЗ 10 н/о ясно -30.0 -34.1 67 -47 -47 опасность
обморожения
1037.6 1014.4
18 23.03 С 14 н/о ясно -26.7 -30.5 70 -45 -45 опасность
обморожения
1037.5 1014.4
21 23.03 СЗ 10 н/о ясно -25.0 -28.5 73 -40 -40 опасность
обморожения
1039.5 1016.3
00 24.03 СЗ 8 н/о ясно -25.1 -28.6 72 -39 -39 опасность
обморожения
1041.1 1017.9
03 24.03 СЗ 8 н/о ясно -27.8 -31.6 70 -43 -43 опасность
обморожения
1040.8 1017.5
06 24.03 С 9 н/о ясно -27.6 -31.5 69 -43 -43 опасность
обморожения
1040.6 1017.4 -30.9 -24.4

 

Местоположение метеостанции Мыс Пил-Вест (Нунавут, Канада): широта 69.03 долгота -107.80 высота над уровнем моря 165 м.

В архиве по умолчанию представлена погода на Мысе Пил-Вест за последнюю неделю. Архивные данные за месяц целиком и за предыдущие месяцы, начиная с января 2011 года, Вы можете получить, выбрав интересующий диапазон дат из раскрывающегося списка и нажав кнопку "Ввод!".


*Определитесь, кто Вы:
робот инопланетянин человек

Внимание! Время в таблицах - всемирное. Для получения местного времени необходимо прибавить поправку, которая равна -7 ч.

Смотрите также архив погоды в соседних городах и на ближайших метеорологических станциях:

Погода в Кеймбридж-Бее (Нунавут, Канада) (108 км)
Погода в Кембридж Бэй (Нунавут, Канада) (108 км)
Погода на Острове Хат (Нунавут, Канада) (325 км)
Погода в Куглуктуке (Нунавут, Канада) (327 км)
Погода в Куглуктуке (Северо-Западные территории, Канада) (327 км)
Погода в Люпине (Нунавут, Канада) (390 км)
Погода в Саскатуне (Саскачеван, Канада) (390 км)
Погода в Аэропорту Холман (Северо-Западные территории, Канада) (427 км)
Погода на Реке Крокер (Нунавут, Канада) (451 км)
Погода в Джойа Хейвен (Нунавут, Канада) (481 км)

Пояснения к столбцам:

Ветер - указаны скорость ветра в м/с - средняя за 10 мин, порывы в срок и между сроками (в фигурных скобках) и направление, откуда дует ветер: С - северный, СВ - северо-восточный, В - восточный, ЮВ - юго-восточный, Ю - южный, ЮЗ - юго-западный, З - западный, СЗ - северо-западный.
Видимость - горизонтальная дальность видимости в метрах или километрах. При видимости от 1 до 10 км при отсутствии осадков обычно наблюдается дымка, при ухудшении видимости до 1 км и менее - туман. В сухую погоду видимость может ухудшаться дымом, пылью или мглою.
Явления - указаны атмосферные явления, наблюдавшиеся в срок или в последний час перед сроком; фигурными скобками обозначены явления, наблюдавшиеся между сроками (за 1-3 часа до срока); квадратными скобками обозначены град или гололедные отложения с указанием их диаметра в мм.
Облачность - указаны через наклонную черту общая и нижняя облачность в баллах и высота нижней границы облаков в метрах; квадратными скобками обозначены формы облаков: Ci - перистые, Cs - перисто-слоистые, Cc - перисто-кучевые, Ac - высококучевые, As - высокослоистые, Sc - слоисто-кучевые, Ns - слоисто-дождевые, Cu - кучевые, Cb - кучево-дождевые. Подробнее классификацию облаков см. в Атласе облаков (PDF).
T - Температура воздуха - температура, измеренная на высоте 2 м над землей.
Td - Температура точки росы - температура, при понижении до которой содержащийся в воздухе водяной пар достигнет насыщения.
f - Относительная влажность воздуха - влажноcть воздуха, измеренная на высоте 2 м над землей.
Te - Эффективная температура - температура, которую ощущает одетый по сезону человек в тени. Характеристика душности погоды. При расчете учитывается влияние влажности воздуха и скорости ветра на теплоощущения человека.
Tes - Эффективная температура на солнце - температура, которую ощущает человек, с поправкой на солнечный нагрев. Характеристика знойности погоды. Зависит от высоты солнца над горизонтом, облачности и скорости ветра. Ночью, в пасмурную погоду, а также при ветре 12 м/с и более поправка равна нулю.
P - Атмосферное давление - приведенное к уровню моря атмосферное давление.
Po - Атмосферное давление - измеренное на уровне метеостанции атмосферное давление.
Tmin - Минимальная температура - минимум температуры воздуха на высоте 2 м над землей.
Tmax - Максимальная температура - максимум температуры воздуха на высоте 2 м над землей.
R - Количество осадков - Количество выпавших осадков за период времени, мм. При наведении курсора мыши на число - период времени, за который выпало указанное количество осадков.
R24 - Количество осадков - Количество выпавших осадков за 24 часа, мм.
S - Снежный покров - Высота снежного покрова, см. При наведении курсора мыши на число - состояние снежного покрова и степень покрытия местности в баллах.